Regional Weather Roundup
Issued by NWS Portland, ME

Current Version | Previous Version | Text Only | Print | Product List | Glossary Off
Versions: 1 2 3 4 5 6 7 8 9 10 11 12 13 14 15 16 17 18 19 20 21 22 23 24 25 26 27 28 29 30 31 32 33 34 35 36 37 38 39 40 41 42 43 44 45 46 47 48 49 50
000 ASUS41 KGYX 182310 RWRGYX WEATHER ROUNDUP FOR MAINE AND NEW HAMPSHIRE NATIONAL WEATHER SERVICE GRAY ME 600 PM EST THU JAN 18 2018 MEZ002-005-006-010-012-015-018-020-021-024-026-027-029-190000- MAINE CITY SKY/WX TMP DP RH WIND PRES REMARKS PORTLAND FAIR 26 17 68 NW6 29.87R SANFORD CLOUDY 25 21 85 CALM 29.87R BAR HARBOR FAIR 21 18 88 W5 29.85R WISCASSET FAIR 21 18 88 CALM 29.87R ROCKLAND FAIR 19 18 95 CALM 29.85S FRYEBURG FAIR 21 20 96 CALM 29.85R LEWISTONAUBURN FAIR 18 10 71 CALM 29.86R AUGUSTA FAIR 25 15 66 NW6 29.84R WATERVILLE FAIR 22 17 81 NW3 29.80R BANGOR FAIR 22 15 75 NW8 29.84R GREENVILLE N/A 20 15 81 NW12 29.74R WCI 8 MILLINOCKET FAIR 24 16 71 W10 29.82R WCI 14 HOULTON CLOUDY 24 15 68 W7 29.78R PRESQUE ISLE FAIR 21 14 74 NW6 29.78S FRENCHVILLE FLURRIES 19 14 81 SW8 29.73S CARIBOU FAIR 22 13 68 VRB3 29.75S $$ NHZ002-005-008-009-011-012-014-190000- NEW HAMPSHIRE CITY SKY/WX TMP DP RH WIND PRES REMARKS PORTSMOUTH MOCLDY 28 18 66 CALM 29.86R ROCHESTER CLOUDY 28 17 63 NW8 29.85R NASHUA FAIR 24 17 74 W3 29.91R MANCHESTER FAIR 27 16 63 VRB6 29.88R CONCORD FAIR 24 16 71 NW5 29.88R LACONIA FAIR 24 16 71 VRB6 29.86R PLYMOUTH FAIR 25 17 71 W5 29.87S BERLIN CLOUDY 23 17 78 NW6 29.83R WHITEFIELD CLOUDY 22 18 85 CALM 29.86R JAFFREY MOCLDY 23 15 71 MISG 29.86R KEENE FAIR 18 14 84 CALM 29.91R LEBANON CLOUDY 26 18 71 W3 29.89R MT WASHINGTON MOCLDY 21 -2 35 NW45 N/A WCI 0 $$ VTZ005-007-008-190000- VERMONT CITY SKY/WX TMP DP RH WIND PRES REMARKS ST JOHNSBURY N/A 22 19 89 MISG 29.88R MONTPELIER CLOUDY 21 17 84 CALM 29.90R BURLINGTON FLURRIES 24 16 71 S7 29.93R $$ MAZ007-012-024-CTZ003-RIZ002-NYZ038-NYZ072-190000- SOUTHERN NEW ENGLAND AND NY CITY SKY/WX TMP DP RH WIND PRES REMARKS BOSTON FAIR 29 16 58 NW10G22 29.90R WCI 20 WORCESTER CLOUDY 24 14 65 NW12 29.87R WCI 13 NANTUCKET FAIR 29 23 78 N15 29.86R WCI 18 PROVIDENCE FAIR 28 17 63 W9 29.91R HARTFORD FAIR 24 13 62 NW10 29.95R WCI 14 ALBANY CLOUDY 23 12 62 W13 30.00R WCI 11 NEW YORK CITY FAIR 31 14 49 NW13 29.99R $$ ANZ081-ANZ082-ANZ150-NHZ014-MEZ023>029-190000- COASTAL MARINE OBSERVATIONS STATION/POSITION TIME TEMP WIND PRES WAVE AIR SEA DIR/SP/G HT/PER (UTC) (F) (DEG/KT/KT) (MB) (FT/S) MOUNT DESERT ROC 2300 29 310/ 14/ 17 1010.2F MATINICUS ROCK 2300 29 350/ 9/ 11 1010.2R ISLE OF SHOALS 2300 30 10/ 8/ 10 1011.5R JEFFREYS LEDGE 2206 44 N/A 3/ 9 GEORGES BANK BUO 2150 44 53 1005.2 5/ 6 $$ .............KEY.............. WCI - WIND CHILL TC - TEMPERATURE IN CELSIUS VSB - VISIBILITY IN MILES HX - HEAT INDEX FAIR- INDICATES FEW OR NO CLOUDS BELOW 12,000 FT, WITH NO SIGNIFICANT WEATHER AND/OR OBSTRUCTIONS TO VISIBILITY.

USA.gov is the U.S. government's official web portal to all federal, state and local government web resources and services.